Tracking 19564 objects as of 20-Mar-2019
HD Live streaming from Space Station
objects crossing your sky now

FENGYUN 1C DEB

Track FENGYUN 1C DEB now!
10-day predictions


NORAD ID: 32123
Int'l Code: 1999-025CRR
Perigee: 592.6 km
Apogee: 843.6 km
Inclination: 98.9 °
Period: 99.0 minutes
Semi major axis: 7089 km
RCS: 0.0018 m2 (small)
Launch date: May 10, 1999
Source: People's Republic of China (PRC)
Launch site: Taiyaun Space Center, China (TSC)

Note: This is SATELLITE DEBRIS
aabbcc
Your satellite tracking list
Your tracking list is empty




NASA's NSSDC Master Catalog

Two Line Element Set (TLE):
1 32123U 99025CRR 19077.72567510 +.00000035 +00000-0 +18985-4 0  9996
2 32123 098.9218 044.0282 0176982 212.5297 271.6888 14.54511436355547
Source of the keplerian elements: AFSPC